West Columbia, WV

4:31 PM EST on February 11, 2016 (GMT -0500)
Point Pleasant

Weather History for K3I2 - September, 2014

Change the Weather History Date:

Monday, September 22, 2014

  Actual Average (KHTS) Record (KHTS)
Temperature  
Mean Temperature 58 °F 65 °F  
Max Temperature 71 °F 76 °F 96 °F (1936)
Min Temperature 46 °F 54 °F 38 °F (1983)
Degree Days  
Heating Degree Days 6 3  
Month to date heating degree days 23  
Since 1 July heating degree days 25  
Cooling Degree Days 0 3  
Month to date cooling degree days 115  
Year to date cooling degree days 1092  
Growing Degree Days 8 (Base 50)    
Moisture  
Dew Point 46 °F    
Average Humidity 65    
Maximum Humidity 93    
Minimum Humidity 35    
Precipitation  
Precipitation 0.00 in 0.09 in 1.36 in (1906)
Month to date precipitation 2.09  
Year to date precipitation 32.34  
Snow  
Snow 0.00 in - - ()
Month to date snowfall  
Since 1 September snowfall  
Snow Depth -    
Sea Level Pressure  
Sea Level Pressure 30.16 in    
Wind  
Wind Speed 2 mph (WNW)    
Max Wind Speed 7 mph    
Max Gust Speed -    
Visibility 10 miles    
Events      
T = Trace of Precipitation, MM = Missing Value Source: NWS Daily Summary

Daily Weather History Graph

Daily Weather History Graph

Search for Another Location

Airport or City:

Trip Planner

Search our weather history database for the weather conditions in past years. The results will help you decide how hot, cold, wet, or windy it might be!

Date:

Astronomy

Sep. 22, 2014 Rise Set
Actual Time 7:16 AM EDT 7:25 PM EDT
Civil Twilight 6:49 AM EDT 7:52 PM EDT
Nautical Twilight 6:18 AM EDT 8:23 PM EDT
Astronomical Twilight 5:46 AM EDT 8:54 PM EDT
Moon 5:44 AM EDT (9/22) 6:32 PM EDT (9/22)
Length of Visible Light 13h 02m
Length of Day
12h 09m
Waning Crescent, 2% of the Moon is Illuminated
Sep 22
Waning Crescent
Sep 24
New
Oct 1
First Quarter
Oct 8
Full
Oct 15
Last Quarter

Hourly Weather History & Observations

Time (EDT) Temp. Dew Point Humidity Pressure Visibility Wind Dir Wind Speed Gust Speed Precip Events Conditions
12:15 AM 60.8 °F 50.0 °F 68% 30.01 in 10.0 mi West 4.6 mph - N/A   Clear
12:35 AM 60.8 °F 50.0 °F 68% 30.01 in 10.0 mi WNW 4.6 mph - N/A   Mostly Cloudy
12:55 AM 60.8 °F 50.0 °F 68% 30.01 in 10.0 mi West 4.6 mph - N/A   Overcast
1:15 AM 60.8 °F 50.0 °F 68% 30.01 in 10.0 mi West 4.6 mph - N/A   Overcast
1:35 AM 60.8 °F 50.0 °F 68% 30.02 in 10.0 mi Calm Calm - N/A   Overcast
1:55 AM 60.8 °F 50.0 °F 68% 30.02 in 10.0 mi West 4.6 mph - N/A   Overcast
2:15 AM 60.8 °F 50.0 °F 68% 30.02 in 10.0 mi West 3.5 mph - N/A   Overcast
2:35 AM 60.8 °F 50.0 °F 68% 30.02 in 10.0 mi West 4.6 mph - N/A   Overcast
2:55 AM 60.8 °F 50.0 °F 68% 30.03 in 10.0 mi Calm Calm - N/A   Overcast
3:15 AM 60.8 °F 50.0 °F 68% 30.03 in 10.0 mi Calm Calm - N/A   Overcast
3:35 AM 59.0 °F 50.0 °F 72% 30.04 in 10.0 mi NW 3.5 mph - N/A   Overcast
3:55 AM 59.0 °F 48.2 °F 67% 30.04 in 10.0 mi Calm Calm - N/A   Overcast
4:15 AM 55.4 °F 48.2 °F 77% 30.05 in 10.0 mi Calm Calm - N/A   Mostly Cloudy
4:35 AM 55.4 °F 46.4 °F 72% 30.06 in 10.0 mi NW 5.8 mph - N/A   Scattered Clouds
4:55 AM 55.4 °F 46.4 °F 72% 30.06 in 10.0 mi Calm Calm - N/A   Clear
5:15 AM 55.4 °F 46.4 °F 72% 30.07 in 10.0 mi WNW 3.5 mph - N/A   Clear
5:35 AM 53.6 °F 46.4 °F 77% 30.07 in 10.0 mi NW 4.6 mph - N/A   Clear
5:55 AM 53.6 °F 46.4 °F 77% 30.08 in 10.0 mi Calm Calm - N/A   Clear
6:15 AM 51.8 °F 46.4 °F 82% 30.09 in 10.0 mi Calm Calm - N/A   Clear
6:35 AM 50.0 °F 46.4 °F 87% 30.10 in 10.0 mi Calm Calm - N/A   Clear
6:55 AM 50.0 °F 46.4 °F 87% 30.10 in 10.0 mi Calm Calm - N/A   Scattered Clouds
7:15 AM 50.0 °F 46.4 °F 87% 30.12 in 10.0 mi Calm Calm - N/A   Mostly Cloudy
7:35 AM 50.0 °F 46.4 °F 87% 30.13 in 10.0 mi Calm Calm - N/A   Scattered Clouds
7:55 AM 50.0 °F 46.4 °F 87% 30.14 in 10.0 mi Calm Calm - N/A   Clear
8:15 AM 51.8 °F 48.2 °F 88% 30.15 in 10.0 mi Calm Calm - N/A   Mostly Cloudy
8:35 AM 55.4 °F 48.2 °F 77% 30.16 in 10.0 mi Calm Calm - N/A   Overcast
8:55 AM 55.4 °F 48.2 °F 77% 30.17 in 10.0 mi Calm Calm - N/A   Overcast
9:15 AM 55.4 °F 48.2 °F 77% 30.18 in 10.0 mi Calm Calm - N/A   Overcast
9:35 AM 57.2 °F 50.0 °F 77% 30.19 in 10.0 mi Calm Calm - N/A   Overcast
9:55 AM 57.2 °F 48.2 °F 72% 30.20 in 10.0 mi Calm Calm - N/A   Overcast
10:15 AM 59.0 °F 48.2 °F 67% 30.21 in 10.0 mi Calm Calm - N/A   Overcast
10:35 AM 59.0 °F 48.2 °F 67% 30.21 in 10.0 mi Calm Calm - N/A   Overcast
10:55 AM 59.0 °F 48.2 °F 67% 30.21 in 10.0 mi Calm Calm - N/A   Overcast
11:15 AM 59.0 °F 48.2 °F 67% 30.21 in 10.0 mi Calm Calm - N/A   Overcast
11:35 AM 60.8 °F 46.4 °F 59% 30.22 in 10.0 mi ENE 3.5 mph - N/A   Overcast
11:55 AM 62.6 °F 46.4 °F 55% 30.21 in 10.0 mi Calm Calm - N/A   Overcast
12:15 PM 62.6 °F 46.4 °F 55% 30.21 in 10.0 mi Calm Calm - N/A   Overcast
12:35 PM 64.4 °F 46.4 °F 52% 30.21 in 10.0 mi Calm Calm - N/A   Mostly Cloudy
12:55 PM 69.8 °F 46.4 °F 43% 30.21 in 10.0 mi South 3.5 mph - N/A   Scattered Clouds
1:15 PM 66.2 °F 46.4 °F 49% 30.21 in 10.0 mi WNW 6.9 mph - N/A   Overcast
1:35 PM 69.8 °F 44.6 °F 40% 30.21 in 10.0 mi SW 4.6 mph - N/A   Overcast
1:55 PM 69.8 °F 46.4 °F 43% 30.20 in 10.0 mi Calm Calm - N/A   Overcast
2:15 PM 68.0 °F 46.4 °F 46% 30.20 in 10.0 mi Calm Calm - N/A   Mostly Cloudy
2:35 PM 68.0 °F 42.8 °F 40% 30.19 in 10.0 mi Calm Calm - N/A   Mostly Cloudy
2:55 PM 68.0 °F 44.6 °F 43% 30.19 in 10.0 mi Calm Calm - N/A   Mostly Cloudy
3:15 PM 69.8 °F 44.6 °F 40% 30.19 in 10.0 mi NNE 5.8 mph - N/A   Mostly Cloudy
3:35 PM 69.8 °F 44.6 °F 40% 30.19 in 10.0 mi Calm Calm - N/A   Mostly Cloudy
3:55 PM 71.6 °F 42.8 °F 35% 30.18 in 10.0 mi NW 3.5 mph - N/A   Scattered Clouds
4:15 PM 69.8 °F 42.8 °F 38% 30.18 in 10.0 mi Calm Calm - N/A   Scattered Clouds
4:35 PM 71.6 °F 42.8 °F 35% 30.19 in 10.0 mi Calm Calm - N/A   Clear
4:55 PM 71.6 °F 42.8 °F 35% 30.19 in 10.0 mi Calm Calm - N/A   Clear
5:15 PM 69.8 °F 42.8 °F 38% 30.19 in 10.0 mi NNW 3.5 mph - N/A   Clear
5:35 PM 69.8 °F 42.8 °F 38% 30.19 in 10.0 mi WNW 3.5 mph - N/A   Clear
5:55 PM 68.0 °F 42.8 °F 40% 30.19 in 10.0 mi Calm Calm - N/A   Clear
6:15 PM 66.2 °F 42.8 °F 43% 30.19 in 10.0 mi Calm Calm - N/A   Clear
6:35 PM 64.4 °F 42.8 °F 45% 30.20 in 10.0 mi Calm Calm - N/A   Clear
6:55 PM 64.4 °F 44.6 °F 49% 30.20 in 10.0 mi Calm Calm - N/A   Clear
7:15 PM 60.8 °F 46.4 °F 59% 30.20 in 10.0 mi Calm Calm - N/A   Clear
7:35 PM 59.0 °F 46.4 °F 63% 30.21 in 10.0 mi Calm Calm - N/A   Clear
7:55 PM 55.4 °F 46.4 °F 72% 30.22 in 10.0 mi Calm Calm - N/A   Clear
8:15 PM 55.4 °F 46.4 °F 72% 30.22 in 10.0 mi Calm Calm - N/A   Clear
8:35 PM 53.6 °F 46.4 °F 77% 30.23 in 10.0 mi Calm Calm - N/A   Clear
8:55 PM 53.6 °F 44.6 °F 72% 30.24 in 10.0 mi Calm Calm - N/A   Clear
9:15 PM 51.8 °F 46.4 °F 82% 30.25 in 10.0 mi Calm Calm - N/A   Clear
9:35 PM 50.0 °F 44.6 °F 82% 30.26 in 10.0 mi Calm Calm - N/A   Clear
9:55 PM 50.0 °F 44.6 °F 82% 30.27 in 10.0 mi Calm Calm - N/A   Clear
10:15 PM 50.0 °F 44.6 °F 82% 30.28 in 10.0 mi Calm Calm - N/A   Clear
10:35 PM 48.2 °F 44.6 °F 87% 30.28 in 10.0 mi Calm Calm - N/A   Clear
10:55 PM 48.2 °F 44.6 °F 87% 30.29 in 10.0 mi Calm Calm - N/A   Clear
11:15 PM 46.4 °F 44.6 °F 93% 30.29 in 10.0 mi Calm Calm - N/A   Clear
11:35 PM 46.4 °F 44.6 °F 93% 30.29 in 10.0 mi Calm Calm - N/A   Clear
11:55 PM 46.4 °F 44.6 °F 93% 30.29 in 10.0 mi Calm Calm - N/A   Clear